| time (UTC) | temp C | wind direction | speed KPH | gust KPH | rain 1hr cm | rain 24hr cm | rain mn cm | humidity % | barometer mb |
| 20260506073357 | 13 | 313 | 1.6 | 6.4 | 0.00 | 0.00 | 0.00 | 81 | 1012.4 |
| 20260506072853 | 13 | 308 | 4.8 | 6.4 | 0.00 | 0.00 | 0.00 | 83 | 1012.2 |
| 20260506072351 | 13 | 41 | 0.0 | 1.6 | 0.00 | 0.00 | 0.00 | 82 | 1012.1 |
| 20260506071848 | 13 | 302 | 3.2 | 6.4 | 0.00 | 0.00 | 0.00 | 82 | 1012.0 |
| 20260506071347 | 13 | 333 | 0.0 | 3.2 | 0.00 | 0.00 | 0.00 | 83 | 1011.8 |
| 20260506070843 | 13 | 21 | 0.0 | 4.8 | 0.00 | 0.00 | 0.00 | 83 | 1011.9 |
| 20260506070340 | 13 | 79 | 3.2 | 3.2 | 0.00 | 0.00 | 0.00 | 83 | 1011.6 |
| 20260506062318 | 14 | 335 | 4.8 | 6.4 | 0.00 | 0.00 | 0.00 | 82 | 1011.5 |
| 20260506061813 | 14 | 91 | 3.2 | 4.8 | 0.00 | 0.00 | 0.00 | 82 | 1011.6 |
| 20260506061310 | 14 | 84 | 1.6 | 4.8 | 0.00 | 0.00 | 0.00 | 81 | 1011.6 |
| 20260506060809 | 14 | 317 | 0.0 | 3.2 | 0.00 | 0.00 | 0.00 | 82 | 1011.7 |
| 20260506060307 | 14 | 308 | 1.6 | 11.3 | 0.00 | 0.00 | 0.00 | 82 | 1011.5 |
| 20260506051238 | 15 | 61 | 3.2 | 4.8 | 0.00 | 0.00 | 0.00 | 81 | 1011.6 |
| 20260506050736 | 15 | 307 | 8.0 | 11.3 | 0.00 | 0.00 | 0.00 | 81 | 1011.6 |
| 20260506050233 | 15 | 332 | 3.2 | 12.9 | 0.00 | 0.00 | 0.00 | 81 | 1011.6 |
| 20260506044724 | 15 | 327 | 11.3 | 16.1 | 0.00 | 0.00 | 0.00 | 80 | 1011.7 |
| 20260506044221 | 15 | 278 | 6.4 | 12.9 | 0.00 | 0.00 | 0.00 | 80 | 1011.5 |
| 20260506043718 | 15 | 330 | 3.2 | 9.7 | 0.00 | 0.00 | 0.00 | 80 | 1011.5 |
| 20260506043216 | 15 | 303 | 8.0 | 12.9 | 0.00 | 0.00 | 0.00 | 80 | 1011.4 |
| 20260506042714 | 15 | 330 | 4.8 | 11.3 | 0.00 | 0.00 | 0.00 | 80 | 1011.4 |
| 20260506042212 | 16 | 356 | 3.2 | 16.1 | 0.00 | 0.00 | 0.00 | 79 | 1011.4 |
| 20260506041711 | 16 | 329 | 8.0 | 12.9 | 0.00 | 0.00 | 0.00 | 79 | 1011.4 |
| 20260506041207 | 16 | 308 | 6.4 | 6.4 | 0.00 | 0.00 | 0.00 | 79 | 1011.4 |
| 20260506040705 | 16 | 324 | 9.7 | 12.9 | 0.00 | 0.00 | 0.00 | 79 | 1011.3 |
| 20260506040201 | 16 | 321 | 4.8 | 14.5 | 0.00 | 0.00 | 0.00 | 78 | 1011.1 |
| 20260506035658 | 16 | 329 | 8.0 | 14.5 | 0.00 | 0.00 | 0.00 | 78 | 1011.6 |
| 20260506035155 | 16 | 330 | 6.4 | 20.9 | 0.00 | 0.00 | 0.00 | 78 | 1011.4 |
| 20260506034652 | 16 | 303 | 8.0 | 20.9 | 0.00 | 0.00 | 0.00 | 77 | 1011.4 |
| 20260506034149 | 16 | 307 | 9.7 | 12.9 | 0.00 | 0.00 | 0.00 | 78 | 1011.4 |
| 20260506033646 | 16 | 317 | 9.7 | 14.5 | 0.00 | 0.00 | 0.00 | 77 | 1011.0 |
| 20260506033143 | 16 | 332 | 6.4 | 16.1 | 0.00 | 0.00 | 0.00 | 77 | 1011.1 |
| 20260506032640 | 17 | 310 | 3.2 | 11.3 | 0.00 | 0.00 | 0.00 | 77 | 1010.8 |
| 20260506032137 | 17 | 328 | 9.7 | 12.9 | 0.00 | 0.00 | 0.00 | 77 | 1010.7 |
| 20260506031634 | 17 | 313 | 6.4 | 11.3 | 0.00 | 0.00 | 0.00 | 77 | 1010.6 |
| 20260506031131 | 17 | 301 | 6.4 | 11.3 | 0.00 | 0.00 | 0.00 | 77 | 1010.4 |
| 20260506030630 | 17 | 311 | 8.0 | 12.9 | 0.00 | 0.00 | 0.00 | 77 | 1010.4 |
| 20260506030127 | 17 | 307 | 11.3 | 17.7 | 0.00 | 0.00 | 0.00 | 77 | 1010.4 |
| 20260506025623 | 17 | 278 | 3.2 | 9.7 | 0.00 | 0.00 | 0.00 | 77 | 1009.9 |
| 20260506025119 | 17 | 304 | 6.4 | 9.7 | 0.00 | 0.00 | 0.00 | 77 | 1009.9 |
| 20260506024617 | 17 | 0 | 8.0 | 14.5 | 0.00 | 0.00 | 0.00 | 77 | 1009.9 |
| 20260506024113 | 17 | 355 | 3.2 | 11.3 | 0.00 | 0.00 | 0.00 | 76 | 1009.9 |
| 20260506023609 | 17 | 314 | 8.0 | 14.5 | 0.00 | 0.00 | 0.00 | 76 | 1009.9 |
| 20260506023107 | 18 | 327 | 6.4 | 9.7 | 0.00 | 0.00 | 0.00 | 76 | 1009.6 |
| 20260506022604 | 18 | 329 | 4.8 | 9.7 | 0.00 | 0.00 | 0.00 | 76 | 1009.6 |
| 20260506022101 | 18 | 73 | 8.0 | 11.3 | 0.00 | 0.00 | 0.00 | 75 | 1009.4 |
| 20260506021559 | 18 | 7 | 6.4 | 9.7 | 0.00 | 0.00 | 0.00 | 76 | 1009.6 |
| 20260506021056 | 18 | 306 | 3.2 | 6.4 | 0.00 | 0.00 | 0.00 | 77 | 1009.6 |
| 20260506020553 | 18 | 306 | 3.2 | 9.7 | 0.00 | 0.00 | 0.00 | 77 | 1009.1 |
| 20260506020050 | 18 | 307 | 1.6 | 1.6 | 0.00 | 0.00 | 0.00 | 77 | 1009.2 |
| 20260506015548 | 18 | 296 | 1.6 | 4.8 | 0.00 | 0.00 | 0.00 | 76 | 1009.2 |
| 20260506015045 | 18 | 11 | 0.0 | 4.8 | 0.00 | 0.00 | 0.00 | 75 | 1009.2 |
| 20260506014542 | 18 | 311 | 4.8 | 9.7 | 0.00 | 0.00 | 0.00 | 75 | 1009.1 |
| 20260506014038 | 18 | 294 | 4.8 | 9.7 | 0.00 | 0.00 | 0.00 | 75 | 1008.6 |
| 20260506013536 | 18 | 71 | 3.2 | 9.7 | 0.00 | 0.00 | 0.00 | 75 | 1008.6 |
| 20260506013032 | 18 | 59 | 3.2 | 9.7 | 0.00 | 0.00 | 0.00 | 73 | 1008.3 |
| 20260506012529 | 18 | 355 | 4.8 | 6.4 | 0.00 | 0.00 | 0.00 | 73 | 1008.1 |
| 20260506012026 | 18 | 349 | 6.4 | 9.7 | 0.00 | 0.00 | 0.00 | 73 | 1008.2 |
| 20260506011524 | 19 | 307 | 9.7 | 12.9 | 0.00 | 0.00 | 0.00 | 72 | 1008.0 |
| 20260506011019 | 19 | 319 | 8.0 | 11.3 | 0.00 | 0.00 | 0.00 | 73 | 1008.0 |
| 20260506010519 | 19 | 327 | 8.0 | 9.7 | 0.00 | 0.00 | 0.00 | 73 | 1007.5 |
| 20260506010015 | 19 | 323 | 9.7 | 12.9 | 0.00 | 0.00 | 0.00 | 72 | 1007.7 |
| 20260506005512 | 20 | 266 | 8.0 | 12.9 | 0.00 | 0.00 | 0.00 | 72 | 1007.5 |
| 20260506005008 | 20 | 305 | 9.7 | 14.5 | 0.00 | 0.00 | 0.00 | 72 | 1007.2 |
| 20260506004506 | 20 | 321 | 11.3 | 22.5 | 0.00 | 0.00 | 0.00 | 71 | 1007.0 |
| 20260506004002 | 21 | 301 | 9.7 | 16.1 | 0.00 | 0.00 | 0.00 | 71 | 1007.3 |
| 20260506003458 | 21 | 294 | 8.0 | 14.5 | 0.00 | 0.00 | 0.00 | 71 | 1007.6 |
| 20260506002954 | 21 | 312 | 8.0 | 16.1 | 0.00 | 0.00 | 0.00 | 70 | 1007.2 |
| 20260506002451 | 21 | 51 | 6.4 | 11.3 | 0.00 | 0.00 | 0.00 | 70 | 1007.2 |
| 20260506001946 | 21 | 324 | 3.2 | 6.4 | 0.00 | 0.00 | 0.00 | 70 | 1006.5 |
| 20260506001443 | 21 | 309 | 9.7 | 14.5 | 0.00 | 0.00 | 0.00 | 70 | 1006.7 |
| 20260506000940 | 21 | 333 | 4.8 | 12.9 | 0.00 | 0.00 | 0.00 | 71 | 1006.8 |
| 20260506000438 | 21 | 307 | 4.8 | 11.3 | 0.00 | 0.00 | 0.00 | 69 | 1007.1 |
| 20260505235935 | 22 | 313 | 12.9 | 16.1 | 0.00 | 0.00 | 0.00 | 69 | 1006.8 |
| 20260505235433 | 22 | 347 | 11.3 | 16.1 | 0.00 | 0.00 | 0.00 | 68 | 1006.8 |
| 20260505234929 | 22 | 26 | 6.4 | 11.3 | 0.00 | 0.00 | 0.00 | 69 | 1006.8 |
| 20260505234427 | 22 | 300 | 6.4 | 11.3 | 0.00 | 0.00 | 0.00 | 68 | 1007.0 |
| 20260505233923 | 22 | 317 | 14.5 | 17.7 | 0.00 | 0.00 | 0.00 | 67 | 1007.1 |
| 20260505233421 | 22 | 338 | 8.0 | 17.7 | 0.00 | 0.00 | 0.00 | 66 | 1007.0 |
| 20260505232918 | 23 | 329 | 4.8 | 12.9 | 0.00 | 0.00 | 0.00 | 66 | 1007.0 |
| 20260505232416 | 23 | 327 | 9.7 | 16.1 | 0.00 | 0.00 | 0.00 | 65 | 1006.5 |
| 20260505231912 | 23 | 335 | 8.0 | 11.3 | 0.00 | 0.00 | 0.00 | 65 | 1006.7 |
| 20260505231410 | 23 | 327 | 6.4 | 11.3 | 0.00 | 0.00 | 0.00 | 65 | 1006.6 |
| 20260505230908 | 23 | 289 | 9.7 | 12.9 | 0.00 | 0.00 | 0.00 | 64 | 1006.6 |
| 20260505230406 | 23 | 333 | 4.8 | 12.9 | 0.00 | 0.00 | 0.00 | 64 | 1006.7 |
| 20260505225902 | 23 | 339 | 8.0 | 14.5 | 0.00 | 0.00 | 0.00 | 64 | 1006.5 |
| 20260505225359 | 24 | 1 | 6.4 | 16.1 | 0.00 | 0.00 | 0.00 | 63 | 1006.5 |
| 20260505224854 | 25 | 1 | 6.4 | 20.9 | 0.00 | 0.00 | 0.00 | 62 | 1006.4 |
| 20260505224352 | 25 | 335 | 11.3 | 20.9 | 0.00 | 0.00 | 0.00 | 62 | 1006.6 |
| 20260505223849 | 25 | 330 | 12.9 | 20.9 | 0.00 | 0.00 | 0.00 | 61 | 1006.5 |
| 20260505223346 | 25 | 296 | 9.7 | 14.5 | 0.00 | 0.00 | 0.00 | 62 | 1006.3 |
| 20260505222842 | 25 | 356 | 9.7 | 20.9 | 0.00 | 0.00 | 0.00 | 60 | 1006.1 |
| 20260505222338 | 26 | 324 | 9.7 | 14.5 | 0.00 | 0.00 | 0.00 | 61 | 1006.1 |
| 20260505221835 | 25 | 335 | 11.3 | 16.1 | 0.00 | 0.00 | 0.00 | 62 | 1006.2 |
| 20260505221332 | 26 | 321 | 11.3 | 14.5 | 0.00 | 0.00 | 0.00 | 63 | 1006.1 |
| 20260505220829 | 26 | 332 | 9.7 | 16.1 | 0.00 | 0.00 | 0.00 | 63 | 1006.0 |
| 20260505220326 | 26 | 345 | 12.9 | 16.1 | 0.00 | 0.00 | 0.00 | 61 | 1005.9 |
| 20260505215824 | 26 | 299 | 9.7 | 17.7 | 0.00 | 0.00 | 0.00 | 62 | 1005.9 |
| 20260505215322 | 27 | 327 | 16.1 | 17.7 | 0.00 | 0.00 | 0.00 | 59 | 1005.8 |
| 20260505214819 | 27 | 318 | 9.7 | 20.9 | 0.00 | 0.00 | 0.00 | 57 | 1006.0 |
| 20260505214317 | 27 | 304 | 12.9 | 22.5 | 0.00 | 0.00 | 0.00 | 56 | 1005.7 |
| 20260505213813 | 27 | 333 | 9.7 | 16.1 | 0.00 | 0.00 | 0.00 | 55 | 1005.6 |
| 20260505213312 | 28 | 284 | 4.8 | 12.9 | 0.00 | 0.00 | 0.00 | 51 | 1005.8 |
| 20260505212807 | 27 | 303 | 6.4 | 12.9 | 0.00 | 0.00 | 0.00 | 49 | 1006.0 |
| 20260505212306 | 27 | 309 | 8.0 | 20.9 | 0.00 | 0.00 | 0.00 | 49 | 1005.9 |
| 20260505211800 | 28 | 309 | 8.0 | 12.9 | 0.00 | 0.00 | 0.00 | 49 | 1005.9 |
| 20260505211259 | 28 | 317 | 6.4 | 9.7 | 0.00 | 0.00 | 0.00 | 50 | 1005.7 |
| 20260505210754 | 28 | 308 | 8.0 | 16.1 | 0.00 | 0.00 | 0.00 | 49 | 1005.8 |
| 20260505210252 | 28 | 0 | 3.2 | 12.9 | 0.00 | 0.00 | 0.00 | 46 | 1005.9 |
| 20260505205749 | 28 | 291 | 4.8 | 16.1 | 0.00 | 0.00 | 0.00 | 45 | 1005.9 |
| 20260505205247 | 29 | 318 | 11.3 | 22.5 | 0.00 | 0.00 | 0.00 | 46 | 1005.9 |
| 20260505204743 | 29 | 307 | 8.0 | 20.9 | 0.00 | 0.00 | 0.00 | 45 | 1005.7 |
| 20260505204242 | 29 | 308 | 16.1 | 27.4 | 0.00 | 0.00 | 0.00 | 45 | 1005.7 |
| 20260505203738 | 30 | 323 | 9.7 | 14.5 | 0.00 | 0.00 | 0.00 | 47 | 1006.0 |
| 20260505203235 | 31 | 313 | 14.5 | 17.7 | 0.00 | 0.00 | 0.00 | 43 | 1005.8 |
| 20260505202731 | 32 | 311 | 9.7 | 12.9 | 0.00 | 0.00 | 0.00 | 47 | 1005.8 |
| 20260505202227 | 32 | 256 | 4.8 | 9.7 | 0.00 | 0.00 | 0.00 | 45 | 1005.5 |
| 20260505201724 | 31 | 241 | 4.8 | 12.9 | 0.00 | 0.00 | 0.00 | 47 | 1005.9 |
| 20260505201222 | 32 | 236 | 1.6 | 4.8 | 0.00 | 0.00 | 0.00 | 48 | 1005.7 |
| 20260505200719 | 31 | 247 | 6.4 | 11.3 | 0.00 | 0.00 | 0.00 | 46 | 1005.8 |
| 20260505200216 | 31 | 253 | 11.3 | 16.1 | 0.00 | 0.00 | 0.00 | 49 | 1005.9 |
| 20260505195712 | 31 | 242 | 3.2 | 11.3 | 0.00 | 0.00 | 0.00 | 56 | 1006.0 |
| 20260505195209 | 31 | 297 | 6.4 | 11.3 | 0.00 | 0.00 | 0.00 | 53 | 1006.0 |
| 20260505194707 | 30 | 285 | 11.3 | 16.1 | 0.00 | 0.00 | 0.00 | 52 | 1006.0 |
| 20260505194203 | 30 | 256 | 4.8 | 17.7 | 0.00 | 0.00 | 0.00 | 54 | 1006.1 |
| 20260505193659 | 30 | 299 | 4.8 | 9.7 | 0.00 | 0.00 | 0.00 | 57 | 1006.0 |
| 20260505193156 | 30 | 251 | 3.2 | 11.3 | 0.00 | 0.00 | 0.00 | 56 | 1005.9 |
| 20260505192655 | 30 | 273 | 4.8 | 12.9 | 0.00 | 0.00 | 0.00 | 57 | 1006.2 |
| 20260505192152 | 30 | 297 | 4.8 | 17.7 | 0.00 | 0.00 | 0.00 | 57 | 1006.2 |
| 20260505191650 | 30 | 303 | 8.0 | 14.5 | 0.00 | 0.00 | 0.00 | 56 | 1006.2 |
| 20260505191148 | 30 | 212 | 6.4 | 17.7 | 0.00 | 0.00 | 0.00 | 55 | 1006.1 |
| 20260505190644 | 30 | 245 | 4.8 | 11.3 | 0.00 | 0.00 | 0.00 | 57 | 1005.9 |
| 20260505190144 | 30 | 248 | 6.4 | 9.7 | 0.00 | 0.00 | 0.00 | 58 | 1005.9 |
| 20260505185641 | 30 | 191 | 9.7 | 12.9 | 0.00 | 0.00 | 0.00 | 58 | 1006.1 |
| 20260505185137 | 30 | 151 | 1.6 | 11.3 | 0.00 | 0.00 | 0.00 | 58 | 1006.0 |
| 20260505184633 | 30 | 230 | 3.2 | 9.7 | 0.00 | 0.00 | 0.00 | 58 | 1006.1 |
| 20260505184131 | 30 | 63 | 0.0 | 4.8 | 0.00 | 0.00 | 0.00 | 58 | 1005.8 |
| 20260505183627 | 30 | 209 | 4.8 | 16.1 | 0.00 | 0.00 | 0.00 | 58 | 1006.0 |
| 20260505183125 | 29 | 289 | 6.4 | 11.3 | 0.00 | 0.00 | 0.00 | 58 | 1006.0 |
| 20260505182621 | 29 | 298 | 1.6 | 11.3 | 0.00 | 0.00 | 0.00 | 60 | 1006.0 |
| 20260505182118 | 30 | 157 | 6.4 | 9.7 | 0.00 | 0.00 | 0.00 | 57 | 1006.1 |
| 20260505181615 | 30 | 310 | 1.6 | 4.8 | 0.00 | 0.00 | 0.00 | 58 | 1006.1 |
| 20260505181112 | 30 | 111 | 0.0 | 4.8 | 0.00 | 0.00 | 0.00 | 61 | 1006.0 |
| 20260505180608 | 29 | 211 | 3.2 | 14.5 | 0.00 | 0.00 | 0.00 | 62 | 1006.3 |
| 20260505180106 | 30 | 154 | 1.6 | 4.8 | 0.00 | 0.00 | 0.00 | 59 | 1006.2 |
| 20260505175601 | 30 | 288 | 4.8 | 12.9 | 0.00 | 0.00 | 0.00 | 61 | 1006.2 |
| 20260505175058 | 29 | 160 | 3.2 | 9.7 | 0.00 | 0.00 | 0.00 | 61 | 1006.4 |
| 20260505174555 | 28 | 228 | 3.2 | 11.3 | 0.00 | 0.00 | 0.00 | 61 | 1006.5 |
| 20260505174050 | 28 | 198 | 1.6 | 9.7 | 0.00 | 0.00 | 0.00 | 62 | 1006.2 |
| 20260505173548 | 29 | 268 | 6.4 | 12.9 | 0.00 | 0.00 | 0.00 | 59 | 1006.1 |
| 20260505173044 | 28 | 224 | 6.4 | 11.3 | 0.00 | 0.00 | 0.00 | 61 | 1006.0 |
| 20260505172542 | 28 | 109 | 1.6 | 14.5 | 0.00 | 0.00 | 0.00 | 62 | 1006.1 |
| 20260505172039 | 29 | 125 | 1.6 | 4.8 | 0.00 | 0.00 | 0.00 | 61 | 1006.2 |
| 20260505171533 | 28 | 257 | 6.4 | 17.7 | 0.00 | 0.00 | 0.00 | 59 | 1006.1 |
| 20260505171030 | 29 | 285 | 4.8 | 12.9 | 0.00 | 0.00 | 0.00 | 61 | 1006.0 |
| 20260505170527 | 29 | 300 | 1.6 | 6.4 | 0.00 | 0.00 | 0.00 | 61 | 1005.9 |
| 20260505170024 | 28 | 54 | 0.0 | 12.9 | 0.00 | 0.00 | 0.00 | 65 | 1006.3 |
| 20260505165519 | 28 | 285 | 1.6 | 3.2 | 0.00 | 0.00 | 0.00 | 63 | 1006.2 |
| 20260505165015 | 28 | 146 | 1.6 | 4.8 | 0.00 | 0.00 | 0.00 | 64 | 1006.2 |
| 20260505164511 | 28 | 354 | 1.6 | 4.8 | 0.00 | 0.00 | 0.00 | 64 | 1006.1 |
| 20260505164009 | 28 | 292 | 1.6 | 11.3 | 0.00 | 0.00 | 0.00 | 65 | 1006.3 |
| 20260505163507 | 28 | 224 | 3.2 | 3.2 | 0.00 | 0.00 | 0.00 | 66 | 1006.2 |
| 20260505163003 | 27 | 56 | 1.6 | 6.4 | 0.00 | 0.00 | 0.00 | 66 | 1006.1 |
| 20260505162457 | 27 | 132 | 1.6 | 6.4 | 0.00 | 0.00 | 0.00 | 67 | 1006.2 |
| 20260505161954 | 27 | 127 | 1.6 | 4.8 | 0.00 | 0.00 | 0.00 | 70 | 1006.3 |
| 20260505161450 | 26 | 358 | 1.6 | 3.2 | 0.00 | 0.00 | 0.00 | 70 | 1006.1 |
| 20260505160948 | 26 | 76 | 1.6 | 9.7 | 0.00 | 0.00 | 0.00 | 72 | 1006.1 |
| 20260505160446 | 26 | 170 | 3.2 | 4.8 | 0.00 | 0.00 | 0.00 | 70 | 1006.0 |
| 20260505152922 | 25 | 161 | 3.2 | 4.8 | 0.00 | 0.00 | 0.00 | 76 | 1005.9 |
| 20260505152420 | 24 | 109 | 1.6 | 11.3 | 0.00 | 0.00 | 0.00 | 78 | 1005.8 |
| 20260505151920 | 24 | 10 | 3.2 | 3.2 | 0.00 | 0.00 | 0.00 | 77 | 1005.8 |
| 20260505151416 | 23 | 192 | 3.2 | 9.7 | 0.00 | 0.00 | 0.00 | 78 | 1005.7 |
| 20260505150913 | 23 | 144 | 1.6 | 4.8 | 0.00 | 0.00 | 0.00 | 78 | 1005.8 |
| 20260505150411 | 23 | 331 | 6.4 | 11.3 | 0.00 | 0.00 | 0.00 | 78 | 1005.8 |
| 20260505140340 | 22 | 79 | 3.2 | 6.4 | 0.00 | 0.00 | 0.00 | 82 | 1005.8 |
| 20260505130304 | 21 | 71 | 1.6 | 6.4 | 0.00 | 0.00 | 0.00 | 84 | 1005.2 |
| 20260505124754 | 21 | 78 | 1.6 | 4.8 | 0.00 | 0.00 | 0.00 | 85 | 1005.0 |
| 20260505124251 | 21 | 176 | 3.2 | 9.7 | 0.00 | 0.00 | 0.00 | 85 | 1004.8 |
| 20260505123746 | 21 | 185 | 4.8 | 11.3 | 0.00 | 0.00 | 0.00 | 86 | 1004.8 |
| 20260505123243 | 20 | 89 | 4.8 | 9.7 | 0.00 | 0.00 | 0.00 | 86 | 1004.7 |
| 20260505122740 | 20 | 290 | 3.2 | 6.4 | 0.00 | 0.00 | 0.00 | 86 | 1004.6 |
| 20260505122237 | 20 | 91 | 3.2 | 9.7 | 0.00 | 0.00 | 0.00 | 86 | 1004.5 |
| 20260505121734 | 20 | 228 | 3.2 | 16.1 | 0.00 | 0.00 | 0.00 | 86 | 1004.4 |
| 20260505121230 | 20 | 286 | 3.2 | 6.4 | 0.00 | 0.00 | 0.00 | 86 | 1004.4 |
| 20260505120727 | 20 | 300 | 1.6 | 9.7 | 0.00 | 0.00 | 0.00 | 86 | 1004.4 |
| 20260505120223 | 20 | 138 | 4.8 | 9.7 | 0.00 | 0.00 | 0.00 | 86 | 1004.4 |
| 20260505115721 | 20 | 320 | 8.0 | 11.3 | 0.00 | 0.00 | 0.00 | 86 | 1004.6 |
| 20260505115220 | 20 | 191 | 1.6 | 4.8 | 0.00 | 0.00 | 0.00 | 86 | 1004.4 |
| 20260505114717 | 20 | 123 | 3.2 | 11.3 | 0.00 | 0.00 | 0.00 | 86 | 1004.4 |
| 20260505114212 | 20 | 196 | 3.2 | 9.7 | 0.00 | 0.00 | 0.00 | 86 | 1004.1 |
| 20260505113709 | 20 | 110 | 1.6 | 11.3 | 0.00 | 0.00 | 0.00 | 85 | 1004.4 |
| 20260505113206 | 20 | 214 | 3.2 | 4.8 | 0.00 | 0.00 | 0.00 | 86 | 1004.2 |
| 20260505112702 | 20 | 155 | 6.4 | 9.7 | 0.00 | 0.00 | 0.00 | 85 | 1004.3 |
| 20260505112200 | 20 | 250 | 4.8 | 9.7 | 0.00 | 0.00 | 0.00 | 85 | 1004.0 |
| 20260505111659 | 20 | 133 | 1.6 | 6.4 | 0.00 | 0.00 | 0.00 | 85 | 1004.2 |
| 20260505111155 | 20 | 115 | 3.2 | 9.7 | 0.00 | 0.00 | 0.00 | 85 | 1004.0 |
| 20260505110652 | 20 | 233 | 3.2 | 9.7 | 0.00 | 0.00 | 0.00 | 85 | 1004.1 |
| 20260505110149 | 20 | 260 | 3.2 | 12.9 | 0.00 | 0.00 | 0.00 | 85 | 1004.0 |
| 20260505102125 | 21 | 154 | 4.8 | 11.3 | 0.00 | 0.00 | 0.00 | 84 | 1004.0 |
| 20260505101624 | 21 | 85 | 1.6 | 4.8 | 0.00 | 0.00 | 0.00 | 84 | 1004.1 |
| 20260505101120 | 21 | 354 | 1.6 | 9.7 | 0.00 | 0.00 | 0.00 | 83 | 1004.3 |
| 20260505100616 | 21 | 175 | 3.2 | 9.7 | 0.00 | 0.00 | 0.00 | 83 | 1004.2 |
| 20260505100113 | 21 | 179 | 3.2 | 12.9 | 0.00 | 0.00 | 0.00 | 83 | 1004.2 |
| 20260505095609 | 21 | 168 | 8.0 | 12.9 | 0.00 | 0.00 | 0.00 | 83 | 1004.3 |
| 20260505095106 | 21 | 131 | 4.8 | 12.9 | 0.00 | 0.00 | 0.00 | 83 | 1004.3 |
| 20260505094602 | 21 | 155 | 6.4 | 14.5 | 0.00 | 0.00 | 0.00 | 83 | 1004.4 |
| 20260505094058 | 21 | 190 | 4.8 | 11.3 | 0.00 | 0.00 | 0.00 | 83 | 1004.5 |
| 20260505093555 | 21 | 52 | 1.6 | 11.3 | 0.00 | 0.00 | 0.00 | 82 | 1004.4 |
| 20260505093052 | 21 | 129 | 3.2 | 12.9 | 0.00 | 0.00 | 0.00 | 82 | 1004.3 |
| 20260505092549 | 21 | 153 | 6.4 | 12.9 | 0.00 | 0.00 | 0.00 | 82 | 1004.1 |
| 20260505092048 | 21 | 162 | 11.3 | 22.5 | 0.00 | 0.00 | 0.00 | 81 | 1004.4 |
| 20260505091544 | 21 | 154 | 3.2 | 14.5 | 0.00 | 0.00 | 0.00 | 81 | 1004.5 |
| 20260505091043 | 21 | 182 | 4.8 | 12.9 | 0.00 | 0.00 | 0.00 | 81 | 1004.4 |
| 20260505090540 | 21 | 145 | 6.4 | 20.9 | 0.00 | 0.00 | 0.00 | 80 | 1004.4 |
| 20260505090038 | 21 | 339 | 6.4 | 12.9 | 0.00 | 0.00 | 0.00 | 80 | 1004.6 |
| 20260505085536 | 21 | 206 | 3.2 | 12.9 | 0.00 | 0.00 | 0.00 | 80 | 1004.6 |
| 20260505085034 | 21 | 181 | 6.4 | 9.7 | 0.00 | 0.00 | 0.00 | 80 | 1004.8 |
| 20260505084531 | 21 | 156 | 1.6 | 12.9 | 0.00 | 0.00 | 0.00 | 79 | 1004.9 |
| 20260505084029 | 21 | 162 | 3.2 | 6.4 | 0.00 | 0.00 | 0.00 | 80 | 1004.9 |
| 20260505083526 | 21 | 176 | 12.9 | 14.5 | 0.00 | 0.00 | 0.00 | 79 | 1004.8 |
| 20260505083023 | 21 | 273 | 3.2 | 12.9 | 0.00 | 0.00 | 0.00 | 79 | 1004.9 |
| 20260505082518 | 21 | 172 | 8.0 | 12.9 | 0.00 | 0.00 | 0.00 | 79 | 1004.9 |
| 20260505082015 | 21 | 153 | 3.2 | 12.9 | 0.00 | 0.00 | 0.00 | 79 | 1004.9 |
| 20260505081512 | 21 | 177 | 1.6 | 14.5 | 0.00 | 0.00 | 0.00 | 79 | 1005.0 |
| 20260505081009 | 21 | 103 | 4.8 | 16.1 | 0.00 | 0.00 | 0.00 | 79 | 1005.1 |
| 20260505080505 | 21 | 168 | 4.8 | 12.9 | 0.00 | 0.00 | 0.00 | 79 | 1004.9 |
| 20260505080001 | 21 | 146 | 3.2 | 9.7 | 0.00 | 0.00 | 0.00 | 79 | 1004.7 |